Regional Weather Roundup
Issued by NWS Sioux Falls, SD

Home | Current Version | Previous Version | Graphics & Text | Print | Product List | Glossary On
Versions: 1 2 3 4 5 6 7 8 9 10 11 12 13 14 15 16 17 18 19 20 21 22 23 24 25 26 27 28 29 30 31 32 33 34 35 36 37 38 39 40 41 42 43 44 45 46 47 48 49 50
994
ASUS43 KFSD 102210
RWRFSD

WEATHER ROUNDUP FOR SE SOUTH DAKOTA/SW MINNESOTA/NW IOWA
NATIONAL WEATHER SERVICE SIOUX FALLS SD
400 PM CST WED FEB 10 2016

NOTE: "FAIR" INDICATES FEW OR NO CLOUDS BELOW 12,000 FEET WITH NO
SIGNIFICANT WEATHER AND OR OBSTRUCTIONS TO VISIBILITY.


SDZ038>040-050-052>070-102300-
SOUTHEAST SOUTH DAKOTA

CITY           SKY/WX    TMP DP  RH WIND       PRES   REMARKS
BROOKINGS      CLOUDY    13   8  81 E8        30.01R WCI   2
CHAMBERLAIN    SUNNY     37  28  69 NE10      29.94R
HURON          CLOUDY    21  15  78 E12       30.04R WCI   9
MADISON        CLOUDY    14  14 100 E15       29.99R WCI  -1
MITCHELL       MOSUNNY   28  20  71 E12       30.00R WCI  18
SIOUX FALLS    CLOUDY    17  11  77 E14       30.01R WCI   3
WINNER         FAIR      48  30  49 N15       29.92R
YANKTON        MOSUNNY   25  19  80 E16       29.96R WCI  12
$$

MNZ071-072-080-081-089-090-097-098-102300-
SOUTHWEST MINNESOTA

CITY           SKY/WX    TMP DP  RH WIND       PRES   REMARKS
FAIRMONT       CLOUDY    10   3  72 NE8       30.06R WCI  -1
JACKSON        CLOUDY    12   5  73 E9        30.03S WCI   0
LUVERNE        CLOUDY    18  12  79 E13       30.02R WCI   4
MARSHALL       FLURRIES  11   5  77 E10       30.10R WCI  -3
MONTEVIDEO     FLURRIES  16   7  67 CALM      30.14R
PIPESTONE      CLOUDY    16   3  57 E14       30.00R WCI   1
REDWOOD FALLS  CLOUDY    14   2  58 E7        30.11R WCI   4
TRACY          FLURRIES  12   8  82 E8        30.08R WCI   1
WINDOM         FLURRIES  10   5  79 E9        30.04S WCI  -2
WORTHINGTON    CLOUDY    10   5  79 E13       30.03R WCI  -5
$$

IAZ001>003-012>014-020>022-031-032-NEZ013-014-SDZ071-102300-
NORTHWEST IOWA

CITY           SKY/WX    TMP DP  RH WIND       PRES   REMARKS
CHEROKEE       CLOUDY    16  13  87 E14       30.02R WCI   2
DENISON        PTSUNNY   19  16  86 E16G22    29.97R WCI   5
ESTHERVILLE    CLOUDY    11   6  81 E12       30.04R WCI  -3
LE MARS        CLOUDY    19  18  93 E15G24    30.00R WCI   5
ORANGE CITY    CLOUDY    18  14  86 E10G18    29.99R WCI   6
SHELDON        CLOUDY    14  12  92 E16       30.00R WCI  -2
SIOUX CITY     CLOUDY    25  18  74 E17       29.97R WCI  12
SPENCER        CLOUDY    14   8  77 E13       30.03R WCI   0
STORM LAKE     CLOUDY    14  14 100 E17       30.01R WCI  -3
$$

ABBREVIATIONS USED IN REMARKS
   TC - TEMPERATURE IN CELSIUS
  WCI - WIND CHILL INDEX
   HX - HEAT INDEX
  VSB - VISIBILITY





USA.gov is the U.S. government's official web portal to all federal, state and local government web resources and services.